グラウアー彗星

C/2018 F1 ( Grauer )

English version
Home page
Updated on June 14, 2021

---------------------------------------------------------------------

・ プロフィール

発見日 2018年3月17日
発見光度 19.1等
発見者 A. D. Grauer (Mount Lemmon)

・ 写真集

・ 軌道要素

Epoch 2018 Dec. 28.0 TT = JDT 2458480.5                                         
T 2018 Dec. 14.07632 TT                                 Rudenko                 
q   2.9930368            (2000.0)            P               Q                  
z  +0.0030904      Peri.   71.62374     -0.34602994     +0.93760544             
 +/-0.0000041      Node   177.29022     -0.86158153     -0.33191998             
e   0.9907504      Incl.   46.07089     +0.37140347     +0.10356238             
From 191 observations 2017 Dec. 22-2019 June 3, mean residual 1".1.             

・ 光度変化

        m1 = 10.5 + 5 logΔ + 10.0 log r

---------------------------------------------------------------------

軌道要素はM.P.E.C. 2021-F20に掲載されたものです。
光度グラフはComet for Windowsで作成したものです。

---------------------------------------------------------------------

Copyright(C) Seiichi Yoshida (comet@aerith.net). All rights reserved.